When you browse on this site, cookies collect data to enhance your experience and personalize the content and advertising you see.
Visit our Privacy Policy to learn more. By continuing to use the site, you agree to this use of cookies and data.

Stündliche Wetter Monoseevo

Heute, 14 Juli, Dienstag

Zeit Temperatur Niederschläge Wind Luftdruck Luftfeuchtigkeit
00:00 +10°C° 0 mm 2 m/S 750 mmHg 93%
01:00 +10°C° 0 mm 2 m/S 750 mmHg 93%
02:00 +10°C° 0 mm 2 m/S 750 mmHg 94%
03:00 +9°C° 0 mm 2 m/S 750 mmHg 94%
04:00 +9°C° 0 mm 3 m/S 750 mmHg 94%
05:00 +9°C° 0 mm 3 m/S 750 mmHg 94%
06:00 +11°C° 0 mm 3 m/S 750 mmHg 88%
07:00 +13°C° 0 mm 3 m/S 750 mmHg 82%
08:00 +16°C° 0 mm 3 m/S 750 mmHg 77%
09:00 +17°C° 0 mm 3 m/S 750 mmHg 71%
10:00 +19°C° 0 mm 3 m/S 750 mmHg 65%
11:00 +20°C° 0 mm 4 m/S 750 mmHg 59%
12:00 +20°C° 0.2 mm 4 m/S 749 mmHg 60%
13:00 +20°C° 0.2 mm 4 m/S 749 mmHg 61%
14:00 +21°C° 0.2 mm 4 m/S 749 mmHg 62%
15:00 +20°C° 0.2 mm 4 m/S 749 mmHg 65%
16:00 +20°C° 0.2 mm 4 m/S 748 mmHg 68%
17:00 +20°C° 0.2 mm 4 m/S 748 mmHg 71%
18:00 +19°C° 0.1 mm 3 m/S 748 mmHg 76%
19:00 +17°C° 0.1 mm 3 m/S 748 mmHg 82%
20:00 +16°C° 0.1 mm 3 m/S 748 mmHg 88%
21:00 +14°C° 0 mm 3 m/S 748 mmHg 90%
22:00 +13°C° 0 mm 3 m/S 748 mmHg 93%
23:00 +12°C° 0 mm 3 m/S 748 mmHg 95%

Morgen, 15 Juli, Mittwoch

Zeit Temperatur Niederschläge Wind Luftdruck Luftfeuchtigkeit
00:00 +12°C° 0 mm 3 m/S 748 mmHg 95%
01:00 +11°C° 0 mm 3 m/S 748 mmHg 96%
02:00 +12°C° 0 mm 2 m/S 748 mmHg 96%
03:00 +12°C° 0 mm 2 m/S 748 mmHg 96%
04:00 +10°C° 0 mm 2 m/S 748 mmHg 96%
05:00 +10°C° 0 mm 2 m/S 748 mmHg 96%
06:00 +13°C° 0 mm 2 m/S 748 mmHg 92%
07:00 +14°C° 0 mm 3 m/S 749 mmHg 88%
08:00 +16°C° 0 mm 3 m/S 749 mmHg 84%
09:00 +18°C° 0 mm 3 m/S 749 mmHg 77%
10:00 +19°C° 0 mm 3 m/S 748 mmHg 71%
11:00 +21°C° 0 mm 4 m/S 748 mmHg 65%
12:00 +21°C° 0.1 mm 4 m/S 748 mmHg 63%
13:00 +22°C° 0.1 mm 4 m/S 748 mmHg 62%
14:00 +22°C° 0.1 mm 4 m/S 748 mmHg 61%
15:00 +22°C° 0.3 mm 3 m/S 748 mmHg 65%
16:00 +21°C° 0.3 mm 3 m/S 748 mmHg 69%
17:00 +21°C° 0.3 mm 3 m/S 748 mmHg 73%
18:00 +20°C° 0.1 mm 2 m/S 748 mmHg 78%
19:00 +18°C° 0.1 mm 2 m/S 748 mmHg 83%
20:00 +18°C° 0.1 mm 1 m/S 748 mmHg 87%
21:00 +16°C° 0 mm 1 m/S 748 mmHg 88%
22:00 +16°C° 0 mm 1 m/S 748 mmHg 90%
23:00 +14°C° 0 mm 0 m/S 749 mmHg 91%

übermorgen, 16 Juli, Donnerstag

Zeit Temperatur Niederschläge Wind Luftdruck Luftfeuchtigkeit
00:00 +14°C° 0 mm 1 m/S 749 mmHg 91%
01:00 +14°C° 0 mm 1 m/S 749 mmHg 91%
02:00 +14°C° 0 mm 1 m/S 749 mmHg 92%
03:00 +14°C° 0 mm 1 m/S 748 mmHg 92%
04:00 +14°C° 0 mm 1 m/S 748 mmHg 92%
05:00 +13°C° 0 mm 1 m/S 748 mmHg 93%
06:00 +15°C° 0 mm 1 m/S 748 mmHg 88%
07:00 +18°C° 0 mm 1 m/S 748 mmHg 82%
08:00 +20°C° 0 mm 1 m/S 748 mmHg 77%
09:00 +21°C° 0.1 mm 1 m/S 748 mmHg 72%
10:00 +23°C° 0.1 mm 1 m/S 748 mmHg 68%
11:00 +24°C° 0.1 mm 1 m/S 748 mmHg 63%
12:00 +25°C° 0.1 mm 1 m/S 747 mmHg 59%
13:00 +25°C° 0.1 mm 1 m/S 747 mmHg 56%
14:00 +26°C° 0.1 mm 1 m/S 747 mmHg 52%
15:00 +26°C° 0.1 mm 1 m/S 747 mmHg 54%
16:00 +26°C° 0.1 mm 1 m/S 746 mmHg 55%
17:00 +26°C° 0.1 mm 1 m/S 746 mmHg 57%
18:00 +24°C° 0.2 mm 1 m/S 746 mmHg 64%
19:00 +22°C° 0.2 mm 1 m/S 746 mmHg 72%
20:00 +20°C° 0.2 mm 1 m/S 746 mmHg 80%
21:00 +20°C° 0.2 mm 1 m/S 746 mmHg 82%
22:00 +19°C° 0.2 mm 1 m/S 746 mmHg 85%
23:00 +18°C° 0.2 mm 1 m/S 746 mmHg 88%

17 Juli, Freitag

Zeit Temperatur Niederschläge Wind Luftdruck Luftfeuchtigkeit
00:00 +18°C° 0.1 mm 1 m/S 746 mmHg 89%
01:00 +16°C° 0.1 mm 1 m/S 746 mmHg 90%
02:00 +16°C° 0.1 mm 1 m/S 746 mmHg 92%
03:00 +16°C° 0 mm 1 m/S 746 mmHg 92%
04:00 +16°C° 0 mm 1 m/S 746 mmHg 93%
05:00 +16°C° 0 mm 1 m/S 746 mmHg 94%
06:00 +18°C° 0 mm 1 m/S 747 mmHg 91%
07:00 +19°C° 0 mm 1 m/S 747 mmHg 88%
08:00 +20°C° 0 mm 1 m/S 747 mmHg 85%
09:00 +21°C° 0.4 mm 2 m/S 747 mmHg 81%
10:00 +23°C° 0.4 mm 2 m/S 747 mmHg 78%
11:00 +24°C° 0.4 mm 2 m/S 747 mmHg 75%
12:00 +24°C° 0.8 mm 2 m/S 747 mmHg 74%
13:00 +24°C° 0.8 mm 2 m/S 747 mmHg 73%
14:00 +24°C° 0.8 mm 2 m/S 747 mmHg 72%
15:00 +24°C° 0.5 mm 2 m/S 747 mmHg 73%
16:00 +24°C° 0.5 mm 2 m/S 747 mmHg 73%
17:00 +24°C° 0.5 mm 2 m/S 747 mmHg 74%
18:00 +23°C° 0.1 mm 1 m/S 747 mmHg 78%
19:00 +21°C° 0.1 mm 1 m/S 747 mmHg 83%
20:00 +20°C° 0.1 mm 1 m/S 747 mmHg 87%
21:00 +20°C° 0.1 mm 1 m/S 748 mmHg 89%
22:00 +19°C° 0.1 mm 1 m/S 748 mmHg 90%
23:00 +19°C° 0.1 mm 1 m/S 748 mmHg 92%

18 Juli, Samstag

Zeit Temperatur Niederschläge Wind Luftdruck Luftfeuchtigkeit
00:00 +18°C° 0 mm 1 m/S 748 mmHg 92%
01:00 +18°C° 0 mm 1 m/S 748 mmHg 92%
02:00 +18°C° 0 mm 1 m/S 748 mmHg 92%
03:00 +18°C° 0 mm 1 m/S 748 mmHg 93%
04:00 +16°C° 0 mm 1 m/S 749 mmHg 93%
05:00 +16°C° 0 mm 1 m/S 749 mmHg 93%
06:00 +19°C° 0 mm 1 m/S 749 mmHg 90%
07:00 +19°C° 0 mm 2 m/S 749 mmHg 87%
08:00 +21°C° 0 mm 2 m/S 749 mmHg 83%
09:00 +23°C° 0.4 mm 2 m/S 749 mmHg 79%
10:00 +24°C° 0.4 mm 2 m/S 749 mmHg 74%
11:00 +26°C° 0.4 mm 3 m/S 749 mmHg 70%
12:00 +26°C° 0.6 mm 3 m/S 749 mmHg 67%
13:00 +27°C° 0.6 mm 2 m/S 749 mmHg 63%
14:00 +27°C° 0.6 mm 2 m/S 749 mmHg 60%
15:00 +26°C° 0.9 mm 2 m/S 749 mmHg 66%
16:00 +25°C° 0.9 mm 2 m/S 749 mmHg 73%
17:00 +24°C° 0.9 mm 2 m/S 749 mmHg 79%
18:00 +23°C° 1.4 mm 2 m/S 749 mmHg 84%
19:00 +20°C° 1.4 mm 2 m/S 749 mmHg 88%
20:00 +19°C° 1.4 mm 2 m/S 749 mmHg 92%
21:00 +18°C° 0.1 mm 2 m/S 749 mmHg 90%
22:00 +18°C° 0.1 mm 2 m/S 750 mmHg 88%
23:00 +19°C° 0.1 mm 1 m/S 750 mmHg 86%

19 Juli, Sonntag

Zeit Temperatur Niederschläge Wind Luftdruck Luftfeuchtigkeit
00:00 +18°C° 0.1 mm 1 m/S 750 mmHg 88%
01:00 +18°C° 0.1 mm 1 m/S 750 mmHg 91%
02:00 +16°C° 0.1 mm 1 m/S 750 mmHg 94%
03:00 +16°C° 0.1 mm 2 m/S 750 mmHg 94%
04:00 +16°C° 0.1 mm 2 m/S 750 mmHg 95%
05:00 +16°C° 0.1 mm 2 m/S 750 mmHg 96%
06:00 +17°C° 0.1 mm 2 m/S 750 mmHg 94%
07:00 +18°C° 0.1 mm 2 m/S 750 mmHg 92%
08:00 +19°C° 0.1 mm 2 m/S 750 mmHg 90%
09:00 +20°C° 0.1 mm 3 m/S 750 mmHg 86%
10:00 +21°C° 0.1 mm 3 m/S 750 mmHg 81%
11:00 +24°C° 0.1 mm 3 m/S 750 mmHg 77%
12:00 +24°C° 1 mm 3 m/S 750 mmHg 76%
13:00 +24°C° 1 mm 3 m/S 749 mmHg 76%
14:00 +25°C° 1 mm 3 m/S 749 mmHg 75%
15:00 +24°C° 1.6 mm 3 m/S 749 mmHg 80%
16:00 +22°C° 1.6 mm 3 m/S 748 mmHg 84%
17:00 +20°C° 1.6 mm 3 m/S 748 mmHg 89%
18:00 +20°C° 0.2 mm 2 m/S 748 mmHg 90%
19:00 +19°C° 0.2 mm 2 m/S 748 mmHg 91%
20:00 +19°C° 0.2 mm 2 m/S 748 mmHg 92%
21:00 +18°C° 0 mm 2 m/S 748 mmHg 93%
22:00 +18°C° 0 mm 2 m/S 748 mmHg 93%
23:00 +17°C° 0 mm 2 m/S 749 mmHg 94%
Mehr zeigen